When you browse on this site, cookies collect data to enhance your experience and personalize the content and advertising you see.
Visit our Privacy Policy to learn more. By continuing to use the site, you agree to this use of cookies and data.
  • In Spain
  • List of Countries
  • For 7 days
  • Water Temperature
  • Satellite Maps
  • Weather Map
  • Weather Widgets
  • user-avatar
    Login

    Hourly Weather Perugia

    Today, 21 June, Friday

    Time Temperature Precipitation Wind Pressure Humidity
    00:00 +18°C° 0 mm 1 mps 728 mmHg 83%
    01:00 +18°C° 0 mm 1 mps 728 mmHg 84%
    02:00 +15°C° 0 mm 0 mps 728 mmHg 84%
    03:00 +15°C° 0 mm 0 mps 728 mmHg 84%
    04:00 +15°C° 0 mm 0 mps 728 mmHg 84%
    05:00 +17°C° 0 mm 0 mps 728 mmHg 79%
    06:00 +18°C° 0 mm 0 mps 728 mmHg 74%
    07:00 +20°C° 0 mm 0 mps 729 mmHg 69%
    08:00 +24°C° 0 mm 1 mps 729 mmHg 62%
    09:00 +26°C° 0 mm 1 mps 729 mmHg 54%
    10:00 +28°C° 0 mm 1 mps 730 mmHg 46%
    11:00 +29°C° 0 mm 1 mps 730 mmHg 43%
    12:00 +30°C° 0 mm 2 mps 730 mmHg 40%
    13:00 +31°C° 0 mm 2 mps 730 mmHg 37%
    14:00 +31°C° 0 mm 2 mps 730 mmHg 38%
    15:00 +31°C° 0 mm 3 mps 729 mmHg 39%
    16:00 +31°C° 0 mm 3 mps 729 mmHg 40%
    17:00 +29°C° 0 mm 2 mps 729 mmHg 48%
    18:00 +27°C° 0 mm 2 mps 729 mmHg 55%
    19:00 +25°C° 0 mm 1 mps 728 mmHg 62%
    20:00 +24°C° 0 mm 1 mps 728 mmHg 63%
    21:00 +23°C° 0 mm 1 mps 728 mmHg 64%
    22:00 +22°C° 0 mm 1 mps 729 mmHg 64%
    23:00 +21°C° 0 mm 1 mps 728 mmHg 65%

    Tomorrow, 22 June, Saturday

    Time Temperature Precipitation Wind Pressure Humidity
    00:00 +21°C° 0 mm 1 mps 728 mmHg 65%
    01:00 +20°C° 0 mm 1 mps 728 mmHg 66%
    02:00 +20°C° 0.1 mm 1 mps 728 mmHg 69%
    03:00 +20°C° 0.1 mm 1 mps 727 mmHg 72%
    04:00 +19°C° 0.1 mm 1 mps 727 mmHg 75%
    05:00 +20°C° 0.1 mm 1 mps 727 mmHg 75%
    06:00 +19°C° 0.1 mm 0 mps 728 mmHg 74%
    07:00 +20°C° 0.1 mm 0 mps 728 mmHg 73%
    08:00 +24°C° 0.1 mm 1 mps 728 mmHg 67%
    09:00 +26°C° 0.1 mm 2 mps 728 mmHg 61%
    10:00 +27°C° 0.1 mm 2 mps 728 mmHg 55%
    11:00 +28°C° 0 mm 4 mps 728 mmHg 53%
    12:00 +29°C° 0 mm 5 mps 728 mmHg 51%
    13:00 +30°C° 0 mm 6 mps 728 mmHg 49%
    14:00 +30°C° 0.2 mm 6 mps 728 mmHg 51%
    15:00 +30°C° 0.2 mm 6 mps 728 mmHg 53%
    16:00 +30°C° 0.2 mm 6 mps 727 mmHg 55%
    17:00 +28°C° 0.2 mm 5 mps 727 mmHg 62%
    18:00 +26°C° 0.2 mm 4 mps 727 mmHg 70%
    19:00 +25°C° 0.2 mm 2 mps 727 mmHg 77%
    20:00 +23°C° 0 mm 2 mps 727 mmHg 82%
    21:00 +21°C° 0 mm 2 mps 727 mmHg 87%
    22:00 +20°C° 0 mm 1 mps 727 mmHg 93%
    23:00 +20°C° 0 mm 1 mps 727 mmHg 93%

    Day after tomorrow, 23 June, Sunday

    Time Temperature Precipitation Wind Pressure Humidity
    00:00 +17°C° 0 mm 0 mps 727 mmHg 94%
    01:00 +17°C° 0 mm 0 mps 727 mmHg 95%
    02:00 +17°C° 0 mm 0 mps 727 mmHg 95%
    03:00 +16°C° 0 mm 0 mps 727 mmHg 95%
    04:00 +16°C° 0 mm 0 mps 727 mmHg 95%
    05:00 +17°C° 0 mm 0 mps 727 mmHg 92%
    06:00 +20°C° 0 mm 1 mps 727 mmHg 89%
    07:00 +22°C° 0 mm 1 mps 728 mmHg 86%
    08:00 +23°C° 0 mm 1 mps 728 mmHg 76%
    09:00 +25°C° 0 mm 1 mps 728 mmHg 67%
    10:00 +27°C° 0 mm 1 mps 729 mmHg 57%
    11:00 +28°C° 0 mm 2 mps 729 mmHg 53%
    12:00 +29°C° 0 mm 2 mps 729 mmHg 50%
    13:00 +29°C° 0 mm 3 mps 729 mmHg 46%
    14:00 +29°C° 0 mm 3 mps 729 mmHg 47%
    15:00 +30°C° 0 mm 3 mps 729 mmHg 47%
    16:00 +30°C° 0 mm 3 mps 728 mmHg 48%
    17:00 +28°C° 0 mm 2 mps 729 mmHg 54%
    18:00 +27°C° 0 mm 2 mps 729 mmHg 60%
    19:00 +26°C° 0 mm 1 mps 729 mmHg 66%
    20:00 +24°C° 0 mm 1 mps 729 mmHg 70%
    21:00 +22°C° 0 mm 1 mps 729 mmHg 74%
    22:00 +21°C° 0 mm 1 mps 729 mmHg 78%
    23:00 +20°C° 0 mm 1 mps 729 mmHg 80%

    24 June, Monday

    Time Temperature Precipitation Wind Pressure Humidity
    00:00 +18°C° 0 mm 0 mps 729 mmHg 82%
    01:00 +17°C° 0 mm 0 mps 729 mmHg 84%
    02:00 +17°C° 0 mm 0 mps 729 mmHg 85%
    03:00 +19°C° 0 mm 1 mps 729 mmHg 86%
    04:00 +19°C° 0 mm 1 mps 729 mmHg 87%
    05:00 +20°C° 0 mm 1 mps 730 mmHg 83%
    06:00 +22°C° 0 mm 1 mps 730 mmHg 78%
    07:00 +24°C° 0 mm 1 mps 730 mmHg 74%
    08:00 +25°C° 0 mm 2 mps 731 mmHg 67%
    09:00 +27°C° 0 mm 2 mps 731 mmHg 61%
    10:00 +29°C° 0 mm 3 mps 731 mmHg 54%
    11:00 +29°C° 0 mm 3 mps 731 mmHg 53%
    12:00 +30°C° 0 mm 4 mps 731 mmHg 52%
    13:00 +30°C° 0 mm 4 mps 732 mmHg 51%
    14:00 +30°C° 0 mm 4 mps 731 mmHg 51%
    15:00 +30°C° 0 mm 4 mps 731 mmHg 51%
    16:00 +30°C° 0 mm 4 mps 731 mmHg 51%
    17:00 +29°C° 0 mm 4 mps 731 mmHg 57%
    18:00 +27°C° 0 mm 3 mps 731 mmHg 64%
    19:00 +26°C° 0 mm 3 mps 731 mmHg 71%
    20:00 +24°C° 0 mm 2 mps 731 mmHg 74%
    21:00 +23°C° 0 mm 2 mps 731 mmHg 78%
    22:00 +20°C° 0 mm 2 mps 731 mmHg 82%
    23:00 +20°C° 0 mm 2 mps 731 mmHg 81%

    25 June, Tuesday

    Time Temperature Precipitation Wind Pressure Humidity
    00:00 +20°C° 0 mm 2 mps 731 mmHg 81%
    01:00 +19°C° 0 mm 2 mps 731 mmHg 81%
    02:00 +19°C° 0 mm 2 mps 731 mmHg 81%
    03:00 +19°C° 0 mm 2 mps 731 mmHg 81%
    04:00 +19°C° 0 mm 2 mps 731 mmHg 81%
    05:00 +20°C° 0 mm 2 mps 731 mmHg 80%
    06:00 +23°C° 0 mm 2 mps 732 mmHg 78%
    07:00 +24°C° 0 mm 2 mps 732 mmHg 76%
    08:00 +26°C° 0 mm 3 mps 732 mmHg 69%
    09:00 +28°C° 0 mm 3 mps 733 mmHg 62%
    10:00 +30°C° 0 mm 4 mps 733 mmHg 56%
    11:00 +30°C° 0 mm 4 mps 733 mmHg 54%
    12:00 +32°C° 0 mm 4 mps 733 mmHg 52%
    13:00 +33°C° 0 mm 4 mps 733 mmHg 50%
    14:00 +33°C° 0 mm 4 mps 733 mmHg 51%
    15:00 +32°C° 0 mm 4 mps 733 mmHg 51%
    16:00 +32°C° 0 mm 4 mps 732 mmHg 52%
    17:00 +30°C° 0 mm 4 mps 732 mmHg 58%
    18:00 +28°C° 0 mm 3 mps 732 mmHg 63%
    19:00 +27°C° 0 mm 2 mps 732 mmHg 69%
    20:00 +25°C° 0 mm 2 mps 732 mmHg 74%
    21:00 +24°C° 0 mm 2 mps 732 mmHg 78%
    22:00 +21°C° 0 mm 2 mps 732 mmHg 83%
    23:00 +21°C° 0 mm 2 mps 732 mmHg 83%

    26 June, Wednesday

    Time Temperature Precipitation Wind Pressure Humidity
    00:00 +20°C° 0 mm 2 mps 732 mmHg 83%
    01:00 +20°C° 0 mm 2 mps 731 mmHg 84%
    02:00 +21°C° 0 mm 1 mps 731 mmHg 83%
    03:00 +20°C° 0 mm 1 mps 731 mmHg 83%
    04:00 +20°C° 0 mm 1 mps 731 mmHg 83%
    05:00 +22°C° 0 mm 1 mps 731 mmHg 79%
    06:00 +23°C° 0 mm 2 mps 731 mmHg 76%
    07:00 +25°C° 0 mm 2 mps 731 mmHg 72%
    08:00 +27°C° 0 mm 2 mps 732 mmHg 66%
    09:00 +29°C° 0 mm 3 mps 732 mmHg 60%
    10:00 +32°C° 0 mm 4 mps 732 mmHg 54%
    11:00 +32°C° 0 mm 4 mps 732 mmHg 52%
    12:00 +33°C° 0 mm 4 mps 732 mmHg 50%
    13:00 +34°C° 0 mm 4 mps 732 mmHg 48%
    14:00 +34°C° 0 mm 4 mps 731 mmHg 48%
    15:00 +33°C° 0 mm 4 mps 731 mmHg 49%
    16:00 +33°C° 0 mm 4 mps 731 mmHg 49%
    17:00 +32°C° 0 mm 4 mps 730 mmHg 55%
    18:00 +29°C° 0 mm 3 mps 730 mmHg 61%
    19:00 +27°C° 0 mm 2 mps 730 mmHg 67%
    20:00 +26°C° 0 mm 2 mps 730 mmHg 71%
    21:00 +24°C° 0 mm 2 mps 730 mmHg 75%
    22:00 +21°C° 0 mm 2 mps 730 mmHg 79%
    23:00 +21°C° 0 mm 2 mps 730 mmHg 80%
    Show more